Wind_Speed
104 104 104 104 103 103 102 101 100 99 98 98 97 96 94 93 92 90 89 87 86 85 84 83 82 81 80 79 78 77 76 75 74 72 71 70 69 68 66 65 64 64 63 62 61 60 58 57 56 55 53 52 50 49 47 46 44 43 42 41 41 40 39 39 38 37 36 35 34 33 32 31 30 29 28 27 26 25 25 24 24 23 23 23 23 24
104 104 103 103 102 101 100 99 98 97 95 95 94 93 91 90 89 88 86 85 84 83 82 81 80 79 78 77 76 75 74 73 71 70 69 68 67 66 65 64 63 62 61 60 59 58 57 56 54 53 52 51 49 48 46 45 43 42 41 41 40 39 39 38 38 37 36 35 34 33 32 31 30 29 28 27 26 25 25 24 24 23 23 23 23 24
103 102 102 101 100 98 97 96 95 94 92 91 91 90 89 87 86 85 84 83 82 81 80 79 78 77 76 75 74 73 72 71 69 68 67 66 65 65 64 63 62 61 60 59 58 57 56 54 53 52 51 49 48 47 45 44 43 42 41 40 39 39 38 38 37 37 36 35 34 33 32 31 30 29 28 27 26 25 25 24 24 24 24 24 24 24
101 100 99 98 96 95 94 93 92 91 90 89 88 87 86 85 84 83 82 81 80 79 78 77 76 75 74 73 72 71 70 69 68 67 66 65 64 63 62 61 61 60 59 58 57 55 54 53 52 51 50 48 47 46 44 43 42 41 40 40 39 39 38 38 37 36 36 35 34 33 32 31 30 29 28 27 27 26 26 25 25 24 24 24 24 24
97 96 95 94 93 92 91 90 89 88 88 87 86 85 84 83 82 81 80 79 78 77 76 75 74 73 72 71 70 69 68 67 66 65 64 63 63 62 61 60 59 58 57 56 55 54 53 52 51 50 49 47 46 45 44 43 42 41 40 39 39 38 38 37 37 36 36 35 34 33 33 32 31 30 29 28 28 27 26 26 25 25 25 25 25 25
94 93 92 91 90 89 89 88 87 86 85 84 84 83 82 81 80 79 78 77 76 75 74 73 72 71 70 69 68 67 66 65 64 64 63 62 61 60 60 59 58 57 56 55 54 53 52 51 50 49 48 47 45 44 43 42 41 40 40 39 39 38 38 37 37 36 36 35 35 34 33 32 32 31 30 29 29 28 28 27 27 26 26 26 26 26
92 91 90 89 88 87 86 86 85 84 83 82 81 81 80 79 78 77 76 75 74 73 72 71 70 69 68 66 65 65 64 64 63 62 62 61 60 59 58 57 56 55 55 54 53 52 51 50 49 48 47 46 45 44 43 42 41 40 40 39 39 38 38 37 37 37 36 36 35 35 34 33 33 32 31 31 30 30 29 29 28 28 28 27 27 27
89 89 88 87 86 85 85 84 83 82 81 80 79 78 78 77 76 75 74 73 72 70 69 68 67 66 65 64 64 63 63 62 62 61 60 60 59 58 57 56 55 54 53 53 52 51 50 49 48 47 46 45 44 43 42 42 41 40 40 39 39 39 38 38 37 37 37 36 36 35 35 34 34 33 33 32 32 31 31 30 30 30 29 29 29 29
87 87 86 85 84 83 82 82 81 79 78 77 77 76 75 75 74 73 72 70 69 68 67 66 65 64 63 62 62 62 61 61 60 60 59 58 57 56 56 55 54 53 52 52 51 50 49 48 48 47 46 45 44 43 42 41 41 40 40 39 39 39 39 38 38 38 37 37 37 36 36 35 35 35 34 34 33 33 33 32 32 32 31 31 31 31
85 85 84 83 82 81 80 79 78 77 76 75 75 74 73 72 71 70 69 68 67 66 65 63 63 62 62 61 61 60 60 60 59 59 58 57 56 55 55 54 53 52 52 51 50 49 48 48 47 46 45 45 44 43 42 42 41 41 40 40 39 39 39 39 38 38 38 38 37 37 37 37 36 36 36 35 35 35 34 34 34 34 33 33 33 33
83 83 82 81 80 79 77 76 76 75 74 73 73 72 71 70 68 67 66 65 65 64 63 62 61 60 60 60 59 59 59 58 58 57 57 56 55 54 54 53 52 51 51 50 49 49 48 47 47 46 45 44 44 43 42 42 41 41 40 40 40 40 40 39 39 39 39 39 38 38 38 38 37 37 37 37 37 36 36 36 36 35 35 35 35 35
81 80 79 78 77 76 75 74 74 73 72 71 70 70 68 67 65 64 63 63 63 62 61 61 60 59 59 58 58 58 57 57 57 56 55 54 54 53 53 52 51 51 50 49 49 48 47 47 46 46 45 45 44 43 43 42 42 41 41 41 41 40 40 40 40 40 40 39 39 39 39 39 39 39 38 38 38 38 38 38 38 37 37 37 37 37
79 78 77 76 75 74 73 72 71 71 70 69 68 67 66 65 63 62 61 61 61 60 59 59 59 58 58 57 57 56 56 56 55 55 54 53 53 52 52 51 51 50 49 49 48 48 47 47 46 46 45 45 44 44 43 43 42 42 42 41 41 41 41 41 41 41 40 40 40 40 40 40 40 40 40 40 40 40 39 39 39 39 39 39 39 39
77 75 74 73 72 71 71 70 69 68 67 66 65 64 63 62 61 60 60 59 59 58 58 57 57 57 57 56 56 55 55 54 54 54 53 53 52 51 51 50 50 49 49 48 48 47 47 46 46 46 45 45 44 44 44 43 43 43 43 42 42 42 42 42 41 41 41 41 41 41 41 41 41 41 41 41 41 41 41 41 41 41 41 41 41 41
74 73 72 71 70 69 69 68 67 66 65 63 62 61 61 60 59 58 58 57 57 57 56 56 56 56 55 55 55 54 54 53 53 53 53 52 51 51 50 50 49 49 48 48 47 47 47 46 46 46 45 45 45 44 44 44 44 44 43 43 43 43 43 42 42 42 42 42 42 42 42 42 42 42 42 42 42 42 42 42 42 42 42 42 42 42
72 70 69 69 68 67 66 65 64 63 62 61 60 59 58 58 57 57 56 56 55 55 54 54 54 54 54 54 53 53 52 53 53 52 52 52 51 50 50 49 49 49 48 48 47 47 47 46 46 46 46 45 45 45 45 45 44 44 44 44 44 44 44 43 43 43 43 43 43 43 43 43 43 43 43 43 43 43 44 44 44 44 44 44 44 44
69 68 67 66 66 65 64 62 61 60 59 59 58 57 56 56 56 55 54 54 54 53 53 53 53 52 52 52 52 52 51 52 52 52 51 51 51 50 49 49 49 49 48 48 47 47 47 47 46 46 46 46 46 45 45 45 45 45 45 45 45 44 44 44 44 44 44 44 44 44 44 44 44 44 44 44 44 45 45 45 45 45 45 45 45 46
66 65 65 64 63 62 61 60 59 58 57 56 56 55 55 54 54 53 53 52 52 52 52 52 51 50 50 50 50 51 51 51 51 51 51 51 50 50 49 49 49 48 48 48 47 47 47 47 47 47 46 46 46 46 46 46 46 46 45 45 45 45 45 45 45 45 45 45 45 45 45 45 45 45 45 45 45 46 46 46 46 46 47 47 47 47
64 63 62 61 60 59 58 57 57 56 55 55 54 53 53 52 52 52 52 52 51 51 50 50 50 49 49 49 50 50 50 50 50 51 50 50 50 50 49 49 49 49 48 48 48 47 47 47 47 47 47 47 46 46 46 46 46 46 46 46 46 46 46 46 46 46 46 46 46 45 45 46 46 46 46 46 46 47 47 47 48 48 48 48 48 49
62 61 60 59 57 57 56 55 55 54 53 52 52 51 51 51 51 51 51 50 50 49 49 48 48 48 49 49 49 50 50 50 50 50 50 50 50 50 49 49 49 49 49 48 48 47 47 47 47 47 47 47 47 47 47 46 46 46 46 46 46 46 46 46 46 46 46 46 46 46 46 46 47 47 47 47 47 48 48 48 49 49 49 50 50 50
59 58 57 56 55 54 54 53 53 52 51 50 50 49 49 49 49 49 49 48 48 47 47 47 48 48 49 49 49 49 49 49 49 50 50 50 49 49 49 49 49 49 49 48 48 47 47 47 47 47 47 47 47 47 47 46 46 46 46 46 46 46 46 46 46 46 46 46 47 47 47 47 47 48 48 48 48 49 49 49 50 50 50 51 51 51
57 56 55 54 53 52 52 51 51 50 49 49 48 48 48 48 48 47 47 46 46 46 46 47 47 48 49 49 49 49 49 49 49 49 50 50 50 50 49 49 49 49 49 49 48 48 48 47 47 47 47 47 47 47 47 46 46 46 46 46 46 46 46 46 46 46 46 47 47 47 47 48 48 48 49 49 49 50 50 50 51 51 52 52 52 53
54 53 53 52 51 50 50 49 49 48 48 47 47 47 47 46 46 45 45 45 45 45 46 47 48 48 49 49 49 49 49 49 49 49 49 49 50 50 49 49 49 49 49 49 48 48 48 47 47 47 47 47 47 46 46 46 46 46 46 46 45 45 45 46 46 46 46 46 47 47 48 48 48 49 49 50 50 51 51 51 52 52 53 53 53 54
52 51 51 50 49 49 48 47 47 47 46 46 45 45 45 45 45 44 44 45 45 46 46 47 48 48 49 49 49 49 49 49 49 49 49 49 50 49 49 49 49 49 49 49 48 48 48 47 47 47 47 46 46 46 46 46 46 46 45 45 45 45 45 45 46 46 46 46 47 47 48 48 49 50 50 50 51 51 52 52 53 53 54 54 54 55
50 50 49 48 48 47 46 46 45 45 45 44 44 44 44 44 44 44 44 44 45 46 46 47 48 49 49 49 50 50 50 50 49 50 50 50 50 49 49 49 49 49 49 49 48 48 47 47 47 47 46 46 46 46 46 45 45 45 45 45 45 45 45 46 46 46 46 47 47 48 48 49 50 50 51 51 52 52 53 53 54 54 55 55 55 56
48 48 47 47 46 45 45 44 44 43 43 43 43 43 43 43 43 43 44 44 45 46 47 48 48 49 49 50 50 50 50 50 50 50 50 50 50 50 49 49 49 49 49 48 48 47 47 47 47 46 46 46 46 45 45 45 45 45 45 45 45 46 46 46 46 47 47 47 48 48 49 50 50 51 51 52 52 53 54 54 55 55 56 56 56 57
46 46 45 45 44 43 43 42 42 42 42 42 42 42 42 42 43 43 44 45 46 46 47 48 49 50 50 50 50 51 51 51 50 50 50 50 50 50 49 49 48 48 48 48 48 47 47 47 47 46 46 46 45 45 45 45 45 45 45 46 46 46 46 47 47 47 48 48 49 49 50 50 51 51 52 53 53 54 54 55 56 56 57 57 57 58
45 44 43 43 42 42 41 41 41 41 41 41 41 41 42 42 43 44 44 45 46 47 48 49 50 50 51 51 51 51 51 51 51 51 50 50 50 49 49 49 48 48 48 48 47 47 47 46 46 46 46 46 46 45 45 45 45 45 46 46 46 46 47 47 48 48 48 49 50 50 51 51 52 52 53 54 54 55 55 56 57 57 58 58 59 59
43 42 42 41 41 40 40 40 40 40 40 41 41 41 42 42 43 44 45 46 47 47 49 49 50 51 51 52 52 52 52 51 51 51 50 50 50 49 49 48 48 48 48 48 47 47 46 46 46 46 46 46 46 46 45 46 46 46 46 46 47 47 47 48 48 49 49 50 50 51 51 52 53 53 54 55 55 56 56 57 58 58 59 59 60 60
41 40 40 40 39 39 39 39 40 40 40 40 41 41 42 43 43 44 45 46 47 48 49 50 51 51 52 52 53 53 52 52 51 51 50 50 50 49 49 48 48 48 47 48 47 47 46 46 46 46 46 46 46 46 46 46 46 46 47 47 47 48 48 49 49 49 50 51 51 52 52 53 54 54 55 56 56 57 58 58 59 60 60 60 61 61
39 39 38 38 39 39 39 39 39 40 40 40 41 42 42 43 44 45 46 47 48 49 50 51 52 52 53 53 53 53 53 52 51 51 50 50 50 49 49 48 48 48 47 47 47 47 47 46 46 46 46 46 47 47 47 47 47 47 47 48 48 49 49 49 50 50 51 52 52 53 54 54 55 56 56 57 58 58 59 59 60 60 61 61 61 62
38 37 37 38 38 38 39 39 39 40 40 41 41 42 43 44 45 46 47 48 49 50 51 52 52 53 53 54 54 54 53 53 52 51 51 50 50 50 49 48 48 48 48 47 47 47 47 47 46 46 47 47 47 47 47 48 48 48 49 49 49 50 50 51 51 52 52 53 53 54 55 55 56 57 57 58 59 59 60 60 61 61 62 62 62 62
37 37 37 38 38 38 39 39 39 40 40 41 42 43 43 44 45 46 48 48 49 50 51 52 53 54 54 54 54 54 54 53 52 52 51 51 50 50 49 49 48 48 48 48 47 47 47 47 47 47 47 47 48 48 48 49 49 49 50 50 51 51 51 52 52 53 54 54 55 55 56 57 57 58 58 59 59 60 60 61 61 62 62 62 63 63
36 37 37 38 38 38 39 39 40 40 41 42 42 43 44 45 46 47 48 49 50 51 52 53 54 54 55 55 55 55 54 54 53 52 52 51 51 50 50 49 49 48 48 48 48 48 47 47 47 47 48 48 48 49 49 49 50 50 51 51 52 52 53 53 54 54 55 56 56 57 57 58 58 59 59 60 60 61 61 61 62 62 62 63 63 63
36 37 37 38 38 39 39 40 40 41 41 42 43 44 45 46 47 48 49 50 51 52 53 53 54 55 55 56 56 56 55 55 54 53 52 51 51 51 50 50 49 49 49 49 49 48 48 48 48 48 48 49 49 49 50 50 51 51 52 52 53 53 54 54 55 56 56 57 58 58 59 59 59 60 60 61 61 61 62 62 62 63 63 63 63 64
36 37 37 38 38 39 39 40 41 41 42 43 44 45 46 47 48 49 50 51 52 53 53 54 55 55 55 56 56 56 56 55 54 53 53 52 51 51 51 50 50 49 49 49 49 49 49 49 49 49 49 49 50 50 51 51 52 52 53 53 54 54 55 56 56 57 58 58 59 59 60 60 60 61 61 61 62 62 62 62 63 63 63 63 64 64
36 37 38 38 39 39 40 40 41 42 43 44 45 46 47 48 49 50 51 52 53 54 54 55 56 56 56 56 56 56 56 56 55 54 53 53 52 51 51 51 50 50 50 50 50 50 50 50 50 50 50 50 51 51 52 52 53 53 54 54 55 56 56 57 57 58 59 59 60 60 61 61 62 62 62 62 62 63 63 63 63 63 64 64 64 64
37 37 38 39 39 40 40 41 42 43 44 45 46 47 48 49 50 51 52 53 54 54 55 56 56 57 57 57 57 57 56 56 55 55 54 53 52 52 51 51 51 51 51 51 51 51 51 52 52 52 52 51 52 52 53 53 54 55 55 56 56 57 57 58 58 59 60 60 61 61 62 62 62 62 62 63 63 63 63 63 64 63 64 64 64 64
37 38 38 39 39 40 41 42 43 44 45 46 47 48 49 50 51 52 53 54 54 55 56 56 57 57 58 58 57 57 57 56 56 55 55 54 53 52 52 52 52 51 51 51 52 52 52 53 53 53 53 53 53 53 54 54 55 55 56 57 57 58 58 59 59 60 61 61 62 62 62 62 63 63 63 63 63 63 64 64 64 64 64 64 64 64
38 38 39 39 40 41 41 42 44 45 46 47 48 49 50 51 52 53 54 54 55 56 56 57 58 58 58 58 58 57 57 56 56 56 55 54 54 53 52 52 52 52 52 52 52 53 53 53 54 54 54 54 54 55 55 55 56 56 57 58 58 59 59 60 60 61 61 62 62 63 63 63 63 63 63 63 63 64 64 64 64 64 64 64 64 64
38 39 39 40 41 41 42 44 45 46 47 48 49 50 51 52 53 54 54 55 56 56 57 58 58 59 59 58 58 57 57 57 56 56 55 55 54 54 53 53 53 53 53 53 53 53 54 54 55 55 55 55 55 56 56 57 57 57 58 58 59 59 60 60 61 62 62 63 63 64 64 64 64 64 64 64 64 64 64 64 64 64 64 64 64 64
39 39 40 41 42 43 44 45 46 47 48 49 50 51 52 52 53 54 55 56 56 57 58 58 59 59 59 59 58 57 57 57 56 56 56 55 55 54 54 54 53 53 53 54 54 54 55 55 55 56 56 56 57 57 58 58 58 58 59 59 59 60 61 61 62 62 63 64 64 64 64 64 64 64 64 64 64 64 64 64 64 64 64 64 64 63
39 40 41 42 43 44 45 46 47 48 49 50 51 52 52 53 54 55 56 56 57 58 59 59 60 60 59 59 59 58 57 57 56 56 56 56 55 55 54 54 54 54 54 54 55 55 55 56 56 57 57 57 58 58 59 59 59 60 60 60 60 61 61 62 62 63 64 64 64 65 65 65 65 65 65 65 64 64 64 64 64 64 64 64 64 63
40 41 42 43 44 45 46 47 48 49 50 51 52 53 53 54 55 55 56 57 58 59 60 60 60 60 60 59 59 59 58 57 57 56 56 55 55 55 55 55 55 54 55 55 55 56 56 57 57 57 58 58 59 59 60 60 61 61 61 61 61 61 62 63 63 64 64 65 65 65 65 65 65 65 65 65 65 64 64 64 64 64 64 63 63 63
41 42 43 44 45 46 47 48 49 50 51 52 53 54 54 55 56 56 57 58 59 60 60 60 60 60 60 60 59 59 59 58 57 57 56 55 55 55 55 55 55 55 55 56 56 57 57 58 58 59 59 59 60 60 61 61 62 62 62 62 62 63 63 63 64 64 65 65 66 66 66 66 66 66 66 65 65 65 64 64 64 64 64 63 63 63
42 43 44 45 46 47 48 49 50 51 52 53 54 54 55 56 57 57 58 59 60 60 61 61 61 61 61 60 60 59 59 58 58 57 56 56 55 55 55 55 55 55 56 56 57 57 58 58 59 60 60 60 61 61 62 62 63 63 64 64 64 64 64 64 65 65 65 66 66 66 66 66 66 66 66 66 65 65 65 64 64 64 64 63 63 63
43 44 45 46 47 48 49 50 51 52 53 54 55 55 56 57 58 58 59 60 60 61 61 61 61 61 61 60 60 59 59 58 58 57 56 56 55 55 55 55 55 56 56 57 58 58 59 59 60 60 61 61 62 62 63 63 64 64 64 64 64 65 65 65 65 66 66 66 67 67 66 66 66 66 66 66 66 65 65 64 64 64 63 63 63 62
44 45 46 47 48 49 50 51 52 53 54 55 56 56 57 58 59 59 60 61 61 61 62 62 62 62 61 60 60 59 58 58 57 57 56 56 56 55 55 55 56 56 57 57 58 59 60 61 61 61 62 62 63 64 64 64 65 65 65 65 65 65 65 66 66 66 67 67 67 67 67 67 67 67 67 66 66 66 65 65 64 64 63 62 62 61
45 46 47 48 49 50 51 52 53 54 55 56 57 57 58 59 60 60 61 61 62 62 62 62 62 62 61 61 60 58 58 57 57 56 56 56 56 55 56 56 56 57 57 58 59 60 61 62 62 62 62 63 63 64 65 65 66 66 65 65 66 66 66 66 67 67 67 67 67 67 67 67 67 66 67 67 67 67 66 66 65 64 63 62 61 60
46 47 48 49 50 51 52 53 54 55 56 57 58 59 59 60 61 61 61 62 62 62 63 63 63 62 62 61 60 58 58 57 57 56 56 56 56 56 56 56 56 57 58 59 60 61 62 63 64 64 64 63 64 65 66 66 66 66 66 66 66 66 66 67 67 67 68 68 68 67 67 67 67 66 66 67 67 67 67 66 65 64 62 61 60 59
47 48 49 50 51 52 53 54 55 56 57 58 59 60 60 61 61 62 62 62 63 63 63 63 63 62 62 61 60 59 58 57 57 56 56 56 55 55 56 56 56 57 58 60 61 62 63 65 66 66 66 65 65 65 66 67 67 67 67 67 66 66 67 67 68 68 68 68 68 67 67 67 66 66 66 66 67 67 67 66 65 64 62 61 60 58
Wind_Direction
290 290 291 291 292 292 292 293 293 293 293 293 294 294 295 295 295 296 296 297 297 297 298 298 298 298 299 299 299 300 300 301 301 302 302 302 303 303 304 304 304 305 305 305 305 305 305 305 305 305 305 305 304 304 304 303 303 302 302 302 302 302 302 302 302 302 302 302 301 301 301 300 300 299 299 298 298 297 297 296 296 295 294 294 294 294
290 290 291 291 291 292 292 292 292 293 293 293 294 294 294 295 295 296 296 296 297 297 297 298 298 298 298 299 299 300 300 300 301 301 302 302 303 303 304 304 304 305 305 305 305 305 305 305 305 304 304 304 304 303 303 302 302 301 301 301 301 301 301 301 301 301 301 300 300 300 300 299 299 298 298 297 297 297 297 296 296 295 295 295 294 294
290 290 291 291 291 292 292 292 292 293 293 293 294 294 294 295 295 296 296 296 297 297 297 297 297 298 298 298 299 299 300 300 300 301 301 302 303 303 304 304 304 304 304 305 305 304 304 304 304 304 303 303 303 302 302 301 301 300 300 300 300 300 300 300 300 300 299 299 299 299 298 298 297 297 297 297 296 296 296 296 295 295 295 294 294 294
290 290 291 291 291 292 292 292 292 292 293 293 293 294 294 295 295 295 296 296 296 297 297 297 297 297 298 298 298 299 299 300 300 301 301 302 303 303 303 304 304 304 304 304 304 304 304 303 303 303 302 302 302 301 301 300 300 299 299 299 299 299 299 299 298 298 298 298 297 297 297 296 296 295 295 295 295 295 294 294 294 294 294 294 293 293
290 290 291 291 291 291 291 292 292 292 293 293 294 294 294 295 295 295 295 296 296 296 296 296 297 297 297 298 298 299 299 299 300 301 301 302 302 303 303 303 303 304 304 304 304 303 303 303 302 302 302 301 301 300 300 299 298 298 298 297 297 297 297 297 297 297 296 296 295 295 295 294 294 294 294 293 293 293 293 293 292 292 292 292 292 292
290 290 290 291 291 291 291 292 292 292 293 293 293 294 294 294 294 295 295 295 295 296 296 296 296 297 297 297 298 298 299 299 300 301 301 302 302 302 303 303 303 303 303 303 303 303 302 302 302 301 301 300 300 299 298 298 297 297 296 296 296 296 296 296 296 295 295 294 294 293 293 293 292 292 292 292 291 291 291 291 291 291 291 291 290 290
290 290 290 290 290 291 291 291 292 292 293 293 293 293 293 294 294 294 295 295 295 295 295 296 296 296 297 297 298 298 299 299 300 301 301 301 302 302 302 303 303 303 303 303 302 302 302 301 301 300 300 299 299 298 297 297 296 296 295 295 295 295 295 294 294 294 293 293 292 292 291 291 291 290 290 290 290 290 289 289 289 289 289 289 289 289
289 289 290 290 290 290 291 291 292 292 292 293 293 293 293 293 294 294 294 294 295 295 295 295 296 296 296 297 298 298 299 299 300 300 301 301 302 302 302 302 302 302 302 302 302 302 301 301 300 300 299 298 298 297 296 296 295 295 294 294 294 294 294 293 293 292 291 291 290 290 290 289 289 289 289 289 288 288 288 288 288 288 287 287 287 287
289 289 289 290 290 290 291 291 291 292 292 292 292 292 293 293 293 294 294 294 294 294 295 295 295 296 296 297 297 298 299 299 299 300 300 301 302 302 302 302 302 302 302 302 301 301 301 300 299 299 298 298 297 296 295 295 294 294 294 293 293 293 292 292 291 291 290 290 289 289 289 288 288 288 288 288 287 287 287 287 287 286 286 286 286 286
289 289 289 290 290 290 291 291 291 291 291 291 292 292 292 293 293 294 294 294 294 294 294 295 295 296 296 297 297 298 298 299 299 300 300 301 302 302 302 302 302 302 302 301 301 301 300 300 299 298 298 297 296 296 295 294 294 293 293 293 292 292 292 291 290 290 289 289 288 288 288 287 287 287 287 287 287 287 286 286 286 286 286 286 285 285
289 289 289 290 290 290 290 290 291 291 291 291 291 292 292 293 293 293 293 294 294 294 294 294 295 295 296 297 297 298 298 299 299 300 301 301 302 302 302 302 302 302 301 301 301 300 300 299 299 298 297 297 296 295 294 294 293 293 292 292 292 291 291 290 290 289 289 288 288 288 287 287 287 287 287 287 286 286 286 286 286 286 286 285 285 285
289 289 289 289 290 290 290 290 290 290 291 291 292 292 292 292 293 293 293 293 293 293 294 294 295 295 296 297 297 298 298 299 299 300 301 301 301 302 301 301 301 301 301 301 300 300 299 299 298 298 297 296 296 295 294 294 293 292 292 291 291 291 290 290 290 289 289 288 288 288 287 287 287 287 287 286 286 286 286 286 286 286 286 286 286 285
289 289 289 289 289 289 290 290 290 290 291 291 291 292 292 292 292 292 292 292 292 293 293 294 295 295 296 296 297 297 298 299 299 300 300 301 301 301 301 301 301 301 301 300 300 300 299 299 298 298 297 297 296 295 294 294 293 292 292 291 291 290 290 290 289 289 288 288 288 287 287 287 287 287 287 286 287 286 286 286 286 286 286 286 286 286
288 289 289 289 289 289 289 290 290 290 290 291 291 291 291 291 291 291 291 291 292 293 293 294 295 295 296 296 297 298 298 299 299 300 300 301 301 301 301 301 301 301 301 300 300 300 299 299 298 298 297 297 296 295 295 294 293 292 291 291 290 290 290 289 289 288 288 288 288 287 287 287 287 287 287 287 287 287 286 286 286 286 286 286 286 286
288 288 289 289 289 289 289 289 290 290 290 290 290 290 290 290 290 290 290 291 292 292 293 294 294 295 296 296 297 298 298 299 300 300 301 301 301 301 301 301 301 301 301 301 300 300 300 299 298 298 297 297 296 296 295 294 293 292 291 291 290 290 289 289 289 288 288 288 288 287 287 287 287 287 287 286 286 286 286 286 286 286 286 286 286 286
288 288 288 288 288 288 289 289 289 289 289 289 289 289 289 289 289 289 290 291 292 292 293 293 294 295 295 296 297 298 299 299 300 300 301 301 301 301 301 301 301 301 301 301 301 300 300 299 299 298 298 297 296 296 295 294 293 292 291 290 290 289 289 289 288 288 288 288 287 287 287 287 287 287 287 287 287 287 286 286 286 286 286 286 286 286
288 288 288 288 288 288 288 288 288 288 288 288 288 288 288 288 289 289 290 291 291 291 292 292 293 294 295 296 297 298 299 299 300 300 301 301 301 301 301 301 301 302 301 301 301 301 300 300 299 299 298 297 296 296 295 294 293 292 291 290 290 289 289 288 288 288 287 287 287 287 287 287 287 287 287 287 286 286 286 286 286 286 286 286 286 286
287 287 287 287 287 287 287 287 287 287 287 287 287 287 287 288 289 289 289 290 290 291 291 292 293 294 295 296 297 298 299 299 300 300 301 301 301 301 301 302 302 302 302 302 301 301 301 300 299 299 298 297 297 296 295 294 293 292 291 291 290 289 289 288 288 287 287 287 287 287 287 287 287 287 287 287 286 286 286 286 286 287 286 286 286 286
286 286 286 286 286 287 286 286 286 286 286 286 286 287 287 288 288 288 288 289 290 290 291 292 293 294 295 296 297 298 299 299 300 300 300 300 301 301 302 302 302 302 302 302 301 301 301 300 299 299 298 297 297 296 295 294 293 293 292 291 290 289 289 288 288 287 287 287 287 287 287 287 287 287 286 287 287 286 287 287 287 287 287 287 287 287
285 285 285 285 286 286 285 285 285 285 286 286 286 286 286 287 287 287 288 289 290 290 291 292 293 294 295 296 297 298 299 299 300 300 300 300 301 301 301 302 301 301 301 301 301 301 300 300 299 299 298 297 296 296 295 294 293 293 292 291 290 290 289 288 288 287 287 287 287 287 287 287 287 287 287 287 287 287 287 287 287 287 287 287 287 287
284 285 285 285 285 285 285 285 285 285 285 285 285 285 285 286 287 287 288 289 290 291 291 292 294 295 296 297 298 299 299 300 300 300 300 300 300 300 301 301 301 301 301 301 301 300 300 300 299 298 298 297 296 295 295 294 293 293 292 291 290 290 289 288 288 288 287 287 287 287 287 287 287 287 287 287 287 287 287 287 288 288 288 288 288 288
284 284 284 284 284 284 284 284 284 284 284 284 284 285 285 286 287 287 288 289 290 291 292 293 294 295 296 297 298 299 299 299 299 299 300 300 300 300 300 300 300 300 300 300 300 300 299 299 298 298 297 297 296 295 295 294 293 293 292 291 291 290 289 289 288 288 287 287 287 287 287 287 287 287 287 288 288 288 288 288 288 288 288 289 289 289
283 283 283 283 283 283 283 283 284 284 284 284 284 285 285 286 287 287 288 289 290 291 292 293 294 296 296 297 298 299 299 299 299 299 299 299 298 298 299 299 299 299 299 299 300 299 299 298 298 297 297 296 296 295 295 294 293 293 292 291 291 290 290 289 289 288 288 288 288 288 288 288 288 288 288 288 288 289 289 289 289 289 289 289 289 289
282 282 282 282 282 282 283 283 283 283 284 284 284 285 286 286 287 287 288 289 290 291 292 294 295 296 296 297 298 299 299 299 299 299 298 298 297 297 297 298 298 298 298 298 299 299 298 298 298 297 297 296 296 295 295 294 294 293 292 292 291 291 290 290 289 289 289 289 288 289 289 289 289 289 289 289 289 289 290 290 290 290 290 290 290 290
281 281 281 281 281 282 282 282 282 283 283 284 284 285 285 286 287 287 288 289 290 292 293 294 295 296 297 298 298 299 299 299 299 298 298 297 297 296 296 297 297 297 297 298 298 298 298 298 298 297 297 296 296 295 295 295 294 294 293 293 292 292 291 291 290 290 290 290 289 289 290 290 290 290 290 290 290 290 290 291 291 291 291 291 291 291
280 280 280 280 281 281 281 281 282 282 283 283 284 285 285 286 287 288 289 290 291 292 293 295 296 296 297 298 299 299 299 299 299 298 297 297 296 296 296 296 296 296 296 297 298 298 298 298 298 298 297 297 296 296 295 295 295 294 294 293 293 292 292 292 292 291 291 291 291 291 290 290 291 291 291 291 291 291 291 291 292 291 292 291 291 291
279 279 279 279 280 280 280 281 281 282 283 283 284 285 285 286 287 288 289 290 292 293 294 295 296 297 298 299 299 299 299 299 299 298 297 296 296 295 295 295 295 296 296 297 297 298 298 298 298 298 298 297 297 297 296 296 295 295 295 294 294 293 293 293 293 292 292 292 292 292 292 292 292 292 292 292 292 292 292 292 292 292 292 292 292 292
278 278 278 278 279 279 280 280 281 282 282 283 284 284 285 286 288 289 290 291 293 294 295 296 297 298 298 299 299 299 299 299 298 298 297 296 295 295 295 295 295 295 296 296 297 297 298 298 298 298 298 298 297 297 297 296 296 296 295 295 295 294 294 294 294 294 293 293 293 293 293 293 293 293 293 293 293 293 293 293 293 293 293 293 293 293
276 277 277 278 278 279 279 280 281 282 283 283 284 285 285 287 288 289 290 292 293 294 295 296 297 298 299 299 299 299 299 299 298 298 297 296 295 295 295 295 295 295 295 296 297 297 298 298 298 299 298 298 298 298 297 297 297 296 296 296 295 295 295 295 295 294 294 294 294 294 294 294 294 294 294 295 294 295 294 294 294 294 294 294 294 293
276 276 277 277 278 279 279 280 281 282 283 283 284 285 286 287 288 290 291 292 294 295 296 297 297 298 299 299 300 299 299 299 298 298 298 297 296 295 295 294 294 295 295 296 297 297 298 298 299 299 299 299 299 298 298 298 298 297 297 296 296 296 296 296 295 295 295 295 295 295 295 295 295 295 295 296 296 296 296 295 295 295 295 295 294 294
276 276 277 277 278 279 280 280 281 282 283 283 284 285 286 288 289 290 291 293 294 295 296 297 298 299 299 300 300 300 299 299 299 299 298 297 296 296 295 295 295 295 295 296 297 298 298 299 299 299 299 299 299 299 299 298 298 298 297 297 297 297 296 296 296 296 296 296 296 296 296 296 296 296 296 297 297 297 297 296 296 296 296 296 295 295
275 276 277 277 278 279 280 280 281 282 283 284 285 286 287 288 289 290 292 293 294 295 297 298 298 299 300 300 300 300 300 300 300 299 299 298 297 296 295 295 295 295 295 296 297 298 299 299 300 300 300 300 299 299 299 299 299 298 298 298 297 297 297 297 297 297 297 297 297 297 297 297 297 297 297 297 298 297 297 297 297 297 297 297 296 296
275 275 276 277 278 278 279 280 281 282 283 284 285 286 287 289 290 291 292 293 295 296 297 298 299 300 300 300 300 300 300 300 300 300 299 299 298 296 296 295 295 295 296 296 297 298 299 299 300 300 300 300 300 300 299 299 299 299 298 298 298 298 298 298 298 298 297 297 297 297 298 298 298 298 298 298 298 298 298 298 298 298 298 297 297 297
274 275 276 277 277 278 280 281 281 283 284 285 286 287 288 289 290 291 293 294 295 296 297 298 299 300 300 301 301 301 301 300 300 300 300 299 298 297 296 295 295 295 296 296 297 298 299 299 300 300 300 300 300 300 300 299 299 299 299 298 298 298 298 298 298 298 298 298 298 298 298 298 298 299 299 299 299 299 299 299 299 298 298 298 298 298
274 275 276 277 278 279 280 281 282 283 284 285 286 287 288 289 291 292 293 294 296 297 298 299 299 300 300 301 301 301 301 301 301 300 300 299 298 297 296 296 295 295 296 297 297 298 299 299 300 300 301 301 300 300 300 300 299 299 299 299 299 299 299 299 299 299 299 299 299 299 299 299 299 299 299 300 300 300 300 299 299 299 299 299 298 298
274 275 276 277 278 280 281 282 283 284 285 286 287 288 289 290 291 292 294 295 296 298 299 299 300 300 300 301 301 301 301 301 301 301 300 299 298 297 297 296 296 296 296 297 298 298 299 300 300 300 301 301 301 301 300 300 300 299 299 299 299 299 299 299 299 299 299 299 299 299 299 300 300 300 300 300 300 300 300 300 300 300 299 299 299 299
274 275 276 278 279 280 281 283 283 284 285 286 287 288 289 290 291 293 294 296 297 298 299 300 300 300 300 300 301 301 301 301 301 300 300 299 298 297 297 296 296 296 297 297 298 298 299 299 300 300 300 301 301 301 301 300 300 300 300 300 299 299 299 299 299 299 299 299 299 300 300 300 300 300 301 301 301 301 300 300 300 300 300 299 299 299
274 276 277 278 279 281 282 283 284 284 285 286 287 288 289 291 292 294 295 297 298 299 299 300 300 300 300 300 300 301 301 301 301 300 300 299 299 298 297 297 296 296 297 297 298 298 299 299 300 300 301 301 301 301 301 301 301 300 300 300 300 300 300 300 300 300 300 300 300 300 300 300 301 301 301 301 301 301 301 300 300 300 300 299 299 299
275 276 277 279 280 281 282 283 283 284 285 286 287 288 290 291 293 295 296 298 299 299 299 300 300 300 300 300 300 301 301 301 301 301 300 300 299 298 298 297 297 297 297 297 297 298 299 299 300 300 300 301 301 301 301 301 301 301 301 300 300 300 300 300 300 300 300 300 300 300 300 300 301 301 301 301 301 301 301 301 300 300 300 300 300 299
275 277 278 279 280 281 281 282 283 284 285 286 287 289 290 292 294 296 297 298 299 299 299 299 299 299 299 300 300 301 301 301 301 301 300 300 299 299 298 297 297 297 297 297 297 298 298 299 299 299 300 300 301 301 301 301 301 301 301 301 301 301 301 301 301 300 300 300 300 300 300 301 301 301 301 301 301 301 301 301 301 300 300 300 300 300
276 277 278 279 280 280 281 281 282 283 284 286 288 289 291 293 295 296 297 298 298 298 298 299 299 299 299 300 300 301 301 301 301 301 301 300 300 299 298 298 297 297 297 297 297 297 298 298 299 299 300 300 301 301 301 301 301 301 301 301 301 301 301 301 301 301 301 301 300 301 301 301 301 301 301 301 301 301 301 301 301 301 301 301 300 300
276 277 278 279 279 280 280 281 282 283 285 287 289 291 293 294 296 297 298 298 298 298 298 298 299 299 299 300 301 301 301 302 302 301 301 300 300 299 299 298 297 297 297 297 297 297 298 298 299 299 300 300 301 301 301 301 301 301 301 301 301 302 301 301 301 301 301 301 301 301 301 301 301 301 302 302 302 301 301 301 301 301 301 301 301 301
276 277 278 278 279 279 280 282 283 285 287 289 291 292 294 295 296 297 297 298 298 298 298 298 299 299 300 301 301 302 302 302 302 301 301 300 300 299 299 298 298 297 297 297 297 297 297 298 298 299 300 300 301 301 302 302 302 302 302 302 302 302 302 301 301 301 301 301 301 301 301 301 302 302 302 302 302 302 302 302 301 301 301 301 301 301
276 277 277 278 279 280 281 283 284 286 288 290 292 294 295 296 297 297 297 298 298 298 298 299 299 300 301 301 302 302 302 302 301 301 301 300 300 299 299 298 298 297 297 297 297 298 298 298 298 299 300 300 301 301 302 302 302 302 302 302 302 302 302 301 301 301 301 301 301 301 301 302 302 302 302 302 302 302 302 302 302 302 302 302 302 302
277 277 278 279 280 281 283 284 286 288 290 292 294 295 296 296 297 297 297 298 298 298 298 299 300 300 301 302 302 302 302 302 301 301 300 300 299 299 298 298 297 297 297 297 297 298 298 298 299 299 300 300 301 301 302 302 302 302 302 302 302 302 302 301 301 301 301 301 301 302 302 302 302 302 302 302 302 302 302 302 302 302 302 302 302 302
277 278 279 280 281 283 284 286 288 290 292 293 295 295 296 297 297 297 298 298 298 298 299 299 300 301 301 302 302 302 302 302 301 300 300 299 299 298 298 297 297 297 297 297 297 297 298 298 299 300 300 301 301 302 302 302 302 302 302 302 302 302 302 302 301 301 301 301 301 302 302 302 302 302 302 302 302 302 302 302 302 302 302 302 302 302
277 278 279 281 282 284 286 288 290 292 293 294 295 296 296 297 297 298 298 298 298 299 299 300 301 301 301 302 302 302 301 301 300 300 299 299 298 298 298 297 297 297 297 297 298 298 298 298 299 299 300 301 301 302 302 302 302 302 302 302 302 302 302 302 302 302 301 302 302 302 302 302 302 302 302 302 302 302 302 302 302 302 302 302 303 303
278 279 280 282 284 286 288 290 291 293 294 295 296 296 297 297 298 298 299 299 299 299 300 300 301 301 301 301 301 301 300 300 299 299 299 298 298 297 297 297 297 297 297 297 298 298 298 298 299 299 300 301 302 302 302 302 302 302 302 302 302 302 302 302 302 301 302 301 302 302 302 302 302 302 302 302 302 302 302 302 302 302 302 302 302 303
279 280 282 284 285 287 289 291 293 294 295 295 296 297 297 298 298 299 299 299 299 300 300 301 301 301 301 301 301 300 299 299 298 298 298 297 297 297 297 297 297 297 297 298 298 298 298 298 299 299 300 301 301 302 302 302 302 302 302 302 302 302 302 301 301 301 301 301 302 302 302 302 302 302 302 302 302 302 302 302 302 302 302 302 302 302
280 281 283 285 287 289 291 292 294 294 295 296 296 297 298 298 299 299 299 299 300 300 300 301 301 301 301 300 300 299 299 298 298 297 297 297 297 297 297 297 297 297 298 298 298 298 299 299 299 299 300 300 301 302 302 302 302 302 302 301 301 301 301 301 301 301 301 301 301 301 302 302 302 302 302 302 302 302 302 302 302 302 302 302 302 302
281 283 285 287 289 290 292 293 294 295 295 296 297 297 298 298 299 299 299 299 300 300 300 301 301 300 300 300 299 299 298 298 297 297 297 297 297 297 297 297 297 297 298 298 298 298 299 299 299 299 300 300 301 301 301 301 301 301 301 301 301 301 301 300 300 300 301 301 301 301 301 301 301 302 302 302 302 302 302 302 302 302 302 302 302 302
Height
10562 10559 10557 10556 10554 10552 10550 10549 10548 10546 10543 10541 10539 10538 10536 10534 10533 10532 10530 10528 10527 10525 10522 10520 10518 10517 10515 10513 10511 10509 10508 10506 10504 10502 10500 10498 10497 10495 10493 10491 10489 10487 10485 10483 10482 10480 10478 10476 10474 10473 10471 10470 10468 10467 10466 10465 10463 10462 10461 10460 10458 10457 10456 10455 10454 10453 10452 10451 10450 10449 10448 10448 10447 10446 10445 10445 10444 10443 10443 10442 10442 10441 10440 10440 10439 10438
10555 10553 10551 10550 10548 10546 10544 10542 10541 10540 10538 10535 10533 10532 10530 10528 10527 10526 10525 10523 10521 10519 10517 10515 10513 10512 10510 10508 10506 10505 10503 10501 10499 10497 10495 10493 10492 10490 10488 10487 10485 10483 10481 10479 10477 10475 10473 10472 10470 10469 10467 10466 10465 10463 10463 10462 10460 10459 10458 10457 10456 10455 10453 10452 10451 10450 10449 10448 10447 10447 10446 10445 10445 10444 10443 10442 10442 10441 10440 10440 10439 10438 10438 10438 10437 10437
10547 10545 10544 10543 10542 10540 10537 10536 10534 10533 10532 10530 10528 10526 10525 10523 10521 10520 10518 10517 10515 10513 10512 10510 10508 10507 10505 10503 10502 10500 10498 10497 10495 10493 10491 10489 10488 10486 10484 10482 10480 10478 10477 10475 10473 10472 10470 10468 10467 10465 10464 10462 10462 10460 10459 10458 10457 10456 10455 10454 10453 10452 10451 10450 10448 10447 10447 10446 10445 10444 10443 10443 10442 10442 10441 10440 10440 10439 10438 10438 10437 10437 10436 10435 10435 10435
10541 10539 10537 10536 10535 10533 10531 10530 10528 10527 10525 10524 10522 10520 10518 10517 10515 10514 10513 10512 10510 10508 10507 10505 10503 10502 10500 10498 10497 10495 10493 10492 10490 10488 10487 10485 10483 10482 10480 10478 10477 10475 10473 10471 10469 10468 10466 10465 10463 10462 10460 10459 10458 10457 10456 10455 10454 10453 10452 10451 10450 10449 10448 10447 10446 10445 10444 10443 10442 10442 10441 10440 10440 10439 10438 10438 10437 10437 10436 10436 10435 10435 10434 10433 10433 10433
10535 10533 10532 10530 10528 10527 10525 10523 10522 10521 10520 10518 10517 10515 10513 10512 10510 10508 10507 10506 10505 10503 10502 10500 10498 10497 10495 10493 10492 10490 10488 10487 10485 10484 10482 10481 10479 10478 10476 10474 10472 10470 10468 10467 10465 10464 10462 10461 10459 10458 10457 10456 10455 10453 10453 10452 10451 10450 10449 10448 10447 10446 10445 10444 10443 10442 10442 10440 10440 10439 10438 10438 10437 10437 10436 10435 10435 10435 10434 10433 10433 10433 10432 10432 10431 10431
10528 10527 10526 10524 10523 10521 10519 10518 10517 10515 10514 10512 10511 10509 10507 10506 10504 10503 10502 10501 10500 10498 10497 10495 10493 10492 10490 10488 10487 10485 10484 10482 10481 10479 10478 10477 10475 10473 10472 10470 10468 10467 10465 10463 10462 10460 10458 10457 10456 10454 10453 10452 10451 10450 10450 10448 10448 10447 10446 10445 10444 10443 10442 10442 10440 10440 10438 10438 10437 10437 10436 10435 10435 10434 10433 10433 10433 10432 10432 10432 10431 10430 10430 10430 10429 10429
10522 10521 10520 10518 10517 10515 10514 10512 10511 10510 10508 10507 10505 10503 10502 10500 10499 10498 10497 10495 10495 10493 10492 10490 10488 10487 10485 10484 10482 10481 10479 10478 10476 10475 10473 10472 10471 10469 10468 10466 10464 10462 10461 10460 10458 10457 10455 10453 10452 10451 10450 10448 10448 10447 10446 10445 10444 10443 10443 10442 10441 10440 10439 10438 10438 10437 10436 10435 10435 10433 10433 10432 10432 10431 10431 10430 10430 10430 10429 10429 10428 10428 10428 10427 10427 10427
10516 10514 10513 10513 10511 10510 10508 10507 10506 10505 10503 10502 10500 10498 10496 10495 10493 10493 10492 10490 10489 10488 10487 10485 10483 10482 10481 10480 10478 10476 10475 10473 10472 10470 10469 10468 10467 10465 10463 10462 10460 10458 10457 10455 10454 10453 10451 10450 10448 10447 10446 10445 10444 10443 10443 10442 10441 10440 10439 10438 10438 10437 10436 10435 10435 10434 10433 10432 10432 10431 10430 10430 10429 10428 10428 10427 10427 10427 10427 10426 10426 10425 10425 10425 10425 10424
10510 10508 10507 10507 10505 10504 10502 10501 10500 10499 10498 10496 10494 10492 10491 10489 10488 10487 10486 10485 10483 10483 10482 10480 10478 10477 10476 10475 10473 10472 10470 10469 10468 10466 10465 10463 10462 10461 10459 10458 10456 10455 10453 10452 10450 10449 10447 10446 10445 10443 10443 10442 10441 10440 10439 10438 10437 10437 10436 10435 10434 10433 10433 10432 10432 10431 10430 10430 10428 10428 10427 10427 10426 10425 10425 10425 10424 10423 10423 10423 10423 10423 10422 10422 10422 10422
10504 10503 10502 10500 10499 10498 10497 10495 10493 10493 10492 10490 10488 10487 10486 10485 10483 10482 10480 10479 10478 10477 10477 10475 10474 10473 10472 10470 10470 10468 10467 10465 10463 10462 10461 10460 10458 10457 10455 10453 10452 10450 10449 10448 10447 10445 10443 10442 10441 10440 10439 10438 10437 10436 10435 10435 10434 10433 10432 10432 10430 10430 10429 10428 10428 10427 10427 10426 10425 10425 10424 10423 10423 10422 10422 10422 10421 10420 10420 10420 10420 10420 10419 10419 10419 10418
10498 10497 10496 10495 10493 10492 10491 10490 10488 10487 10486 10485 10483 10482 10481 10480 10478 10477 10475 10474 10473 10472 10471 10470 10469 10468 10467 10466 10465 10464 10462 10460 10459 10458 10457 10455 10454 10453 10451 10449 10448 10447 10445 10443 10442 10441 10440 10438 10437 10436 10435 10434 10433 10432 10432 10431 10430 10429 10428 10428 10427 10427 10425 10425 10424 10423 10423 10423 10422 10422 10421 10420 10420 10419 10418 10418 10418 10417 10417 10417 10416 10416 10416 10415 10415 10415
10492 10491 10490 10489 10488 10487 10485 10484 10483 10482 10480 10479 10478 10477 10475 10474 10473 10472 10470 10469 10468 10467 10466 10465 10465 10464 10463 10462 10460 10459 10458 10457 10455 10453 10453 10452 10450 10448 10447 10445 10444 10443 10442 10440 10438 10437 10436 10434 10433 10432 10431 10430 10429 10428 10428 10427 10427 10425 10425 10424 10423 10423 10422 10421 10420 10420 10420 10419 10418 10418 10417 10417 10416 10415 10415 10415 10414 10413 10413 10413 10412 10412 10412 10412 10412 10412
10487 10486 10485 10483 10482 10481 10480 10478 10477 10476 10475 10474 10473 10472 10470 10469 10468 10467 10466 10465 10463 10463 10462 10460 10460 10459 10458 10458 10457 10455 10453 10452 10451 10450 10449 10448 10447 10445 10443 10442 10440 10439 10438 10436 10435 10433 10432 10430 10429 10428 10427 10426 10425 10425 10424 10423 10422 10422 10421 10420 10420 10419 10418 10417 10417 10416 10416 10415 10415 10414 10413 10413 10412 10412 10411 10410 10410 10410 10409 10409 10408 10408 10408 10408 10407 10407
10481 10480 10479 10478 10477 10475 10474 10473 10472 10471 10470 10469 10468 10467 10465 10465 10463 10463 10462 10460 10459 10458 10458 10457 10455 10454 10453 10453 10452 10451 10450 10448 10447 10445 10445 10443 10442 10441 10439 10438 10436 10435 10434 10432 10431 10429 10428 10427 10425 10424 10423 10422 10422 10420 10420 10419 10418 10418 10417 10416 10415 10415 10414 10413 10413 10412 10412 10411 10410 10410 10410 10409 10408 10408 10407 10407 10406 10405 10405 10405 10405 10404 10403 10403 10403 10403
10475 10474 10473 10472 10471 10470 10468 10468 10467 10466 10465 10464 10463 10462 10461 10460 10459 10458 10457 10456 10455 10455 10453 10452 10451 10450 10450 10448 10448 10447 10445 10443 10442 10441 10440 10439 10438 10437 10435 10433 10432 10431 10430 10428 10427 10425 10424 10423 10422 10420 10419 10418 10417 10417 10416 10415 10414 10413 10413 10412 10412 10411 10410 10410 10409 10408 10408 10407 10407 10406 10405 10405 10404 10403 10403 10403 10402 10402 10401 10400 10400 10400 10400 10399 10398 10398
10470 10468 10467 10466 10465 10464 10463 10463 10462 10461 10460 10459 10458 10458 10457 10455 10455 10454 10453 10452 10452 10450 10450 10448 10447 10447 10445 10445 10444 10443 10442 10440 10438 10437 10436 10435 10434 10433 10432 10430 10428 10427 10426 10425 10423 10422 10420 10419 10418 10417 10415 10415 10413 10413 10412 10411 10410 10410 10409 10408 10408 10407 10407 10406 10405 10405 10404 10403 10403 10402 10402 10401 10400 10400 10399 10398 10398 10397 10397 10396 10396 10395 10395 10395 10394 10394
10464 10463 10462 10461 10460 10459 10458 10458 10457 10457 10455 10455 10454 10453 10452 10451 10450 10450 10449 10448 10447 10447 10446 10445 10444 10443 10442 10441 10440 10439 10438 10436 10434 10433 10432 10431 10430 10428 10428 10426 10424 10423 10422 10421 10419 10418 10417 10415 10414 10413 10412 10410 10410 10409 10408 10407 10407 10405 10405 10404 10403 10403 10402 10402 10401 10400 10400 10399 10398 10398 10397 10397 10396 10395 10395 10394 10393 10393 10392 10392 10391 10391 10390 10390 10390 10389
10458 10458 10457 10456 10455 10455 10454 10453 10452 10452 10451 10450 10450 10448 10448 10447 10447 10446 10445 10444 10443 10443 10442 10441 10440 10440 10438 10437 10436 10435 10435 10433 10431 10429 10428 10427 10425 10425 10423 10422 10420 10419 10418 10417 10415 10414 10413 10412 10410 10409 10408 10407 10406 10405 10404 10403 10402 10402 10401 10400 10400 10399 10398 10398 10397 10397 10396 10395 10395 10394 10393 10393 10392 10392 10391 10390 10389 10388 10388 10387 10387 10386 10385 10385 10385 10384
10453 10453 10452 10452 10451 10450 10449 10448 10448 10447 10447 10446 10445 10445 10443 10443 10442 10442 10441 10440 10440 10439 10438 10437 10436 10435 10435 10434 10433 10432 10431 10429 10427 10425 10424 10423 10422 10420 10420 10418 10417 10415 10414 10413 10412 10411 10409 10408 10407 10405 10404 10403 10402 10401 10400 10399 10398 10398 10397 10396 10395 10395 10394 10393 10393 10392 10392 10391 10390 10390 10389 10388 10388 10387 10387 10385 10385 10384 10383 10383 10382 10382 10381 10380 10380 10379
10448 10448 10448 10447 10447 10445 10445 10444 10443 10443 10442 10442 10441 10440 10440 10439 10438 10438 10437 10437 10435 10435 10434 10433 10432 10432 10431 10430 10429 10428 10427 10425 10423 10422 10420 10419 10418 10417 10416 10415 10413 10412 10410 10410 10408 10407 10406 10404 10403 10402 10400 10399 10398 10397 10396 10395 10395 10393 10393 10392 10392 10390 10390 10389 10388 10388 10387 10387 10386 10385 10385 10384 10383 10382 10382 10381 10380 10380 10378 10378 10377 10377 10376 10375 10375 10374
10443 10443 10443 10443 10442 10441 10440 10440 10439 10438 10438 10438 10437 10437 10436 10435 10435 10433 10433 10432 10432 10431 10430 10429 10428 10427 10427 10426 10425 10424 10423 10422 10420 10418 10417 10415 10414 10413 10412 10411 10409 10408 10407 10406 10405 10404 10402 10401 10400 10398 10397 10396 10395 10393 10392 10392 10390 10390 10389 10388 10387 10387 10386 10385 10384 10383 10383 10382 10382 10381 10380 10379 10378 10378 10377 10377 10375 10375 10374 10373 10372 10372 10371 10370 10369 10368
10439 10438 10438 10438 10438 10437 10436 10435 10435 10435 10434 10434 10433 10432 10432 10431 10430 10430 10429 10428 10428 10427 10426 10425 10424 10423 10423 10422 10421 10420 10419 10418 10417 10415 10413 10412 10410 10409 10408 10407 10406 10404 10403 10402 10402 10400 10399 10398 10396 10395 10393 10392 10391 10390 10388 10388 10387 10386 10385 10384 10383 10382 10382 10381 10380 10380 10378 10378 10377 10376 10375 10375 10374 10373 10372 10372 10371 10370 10369 10368 10367 10367 10365 10365 10364 10363
10435 10434 10434 10433 10433 10433 10432 10432 10431 10430 10430 10430 10429 10428 10428 10427 10427 10426 10425 10425 10424 10423 10422 10422 10421 10420 10419 10418 10417 10416 10415 10414 10413 10412 10410 10408 10407 10405 10405 10403 10402 10400 10400 10399 10398 10397 10395 10394 10393 10391 10390 10388 10387 10386 10385 10383 10383 10382 10381 10380 10379 10378 10378 10377 10376 10375 10374 10373 10373 10372 10371 10370 10369 10368 10367 10367 10366 10365 10364 10363 10362 10361 10360 10360 10358 10358
10430 10430 10430 10430 10429 10428 10428 10428 10427 10427 10427 10426 10425 10425 10424 10423 10423 10423 10422 10422 10420 10420 10419 10418 10417 10416 10415 10414 10413 10412 10411 10410 10409 10408 10406 10405 10403 10402 10401 10400 10398 10397 10396 10395 10395 10393 10392 10390 10389 10388 10386 10385 10383 10382 10381 10380 10378 10378 10377 10376 10375 10374 10373 10372 10372 10371 10370 10369 10368 10367 10367 10365 10365 10363 10363 10362 10361 10360 10359 10358 10357 10356 10355 10354 10353 10352
10426 10426 10425 10425 10425 10425 10424 10424 10423 10423 10423 10422 10422 10421 10420 10420 10420 10419 10418 10418 10417 10416 10415 10414 10413 10412 10411 10410 10409 10408 10407 10407 10405 10404 10402 10400 10399 10398 10397 10397 10395 10393 10392 10392 10391 10390 10388 10387 10385 10384 10382 10381 10380 10378 10377 10376 10375 10373 10373 10372 10370 10370 10369 10368 10367 10367 10365 10365 10363 10363 10362 10361 10360 10359 10358 10357 10356 10355 10353 10353 10352 10350 10350 10348 10347 10347
10422 10422 10422 10422 10421 10421 10420 10420 10420 10420 10419 10418 10418 10417 10417 10417 10416 10415 10415 10413 10413 10412 10412 10410 10409 10408 10407 10407 10405 10404 10403 10402 10402 10400 10398 10397 10395 10394 10393 10393 10392 10390 10388 10387 10387 10386 10384 10383 10381 10380 10378 10377 10376 10375 10373 10372 10371 10370 10368 10367 10367 10365 10365 10363 10363 10362 10361 10360 10359 10358 10357 10356 10355 10354 10353 10352 10351 10350 10348 10347 10346 10345 10344 10343 10342 10340
10418 10418 10418 10418 10417 10417 10417 10417 10416 10416 10415 10415 10415 10414 10413 10413 10412 10411 10410 10410 10409 10408 10408 10407 10405 10404 10403 10402 10401 10400 10399 10398 10397 10396 10395 10393 10392 10390 10389 10388 10387 10386 10384 10383 10383 10382 10380 10378 10377 10376 10375 10373 10372 10370 10369 10368 10367 10365 10365 10363 10362 10361 10360 10359 10358 10357 10356 10355 10354 10353 10352 10351 10350 10349 10348 10347 10345 10345 10343 10342 10340 10339 10338 10337 10335 10335
10414 10414 10414 10414 10413 10413 10413 10413 10413 10412 10412 10412 10411 10410 10410 10409 10408 10407 10407 10406 10406 10405 10403 10403 10402 10400 10399 10398 10397 10396 10395 10394 10393 10392 10391 10389 10387 10386 10385 10384 10383 10382 10380 10379 10378 10378 10377 10375 10373 10372 10370 10369 10368 10367 10365 10364 10363 10362 10360 10359 10358 10357 10356 10355 10353 10352 10352 10350 10349 10348 10347 10346 10345 10343 10343 10342 10340 10339 10338 10337 10335 10333 10332 10331 10330 10328
10410 10410 10410 10410 10410 10410 10410 10409 10409 10408 10408 10408 10407 10407 10407 10406 10405 10404 10403 10402 10402 10401 10400 10398 10398 10397 10395 10394 10393 10392 10391 10390 10389 10388 10387 10385 10383 10382 10381 10380 10379 10378 10377 10375 10373 10373 10372 10371 10370 10368 10366 10365 10363 10362 10361 10360 10358 10357 10356 10355 10353 10352 10352 10350 10349 10348 10347 10345 10344 10343 10342 10341 10340 10338 10337 10336 10335 10333 10332 10330 10329 10327 10326 10325 10323 10322
10407 10407 10407 10407 10407 10407 10406 10406 10405 10405 10405 10405 10404 10403 10403 10402 10402 10400 10400 10399 10398 10397 10396 10395 10393 10393 10392 10390 10388 10387 10387 10385 10385 10384 10382 10380 10378 10377 10377 10376 10375 10373 10372 10371 10369 10368 10367 10367 10365 10364 10362 10360 10359 10358 10357 10355 10354 10353 10352 10350 10349 10348 10347 10345 10344 10343 10342 10340 10339 10338 10337 10335 10334 10333 10332 10330 10329 10327 10326 10324 10323 10321 10320 10318 10317 10315
10403 10403 10403 10403 10403 10403 10403 10402 10402 10402 10402 10401 10400 10400 10399 10398 10398 10397 10397 10395 10395 10393 10392 10391 10390 10388 10387 10386 10385 10383 10382 10381 10380 10380 10378 10376 10374 10373 10372 10371 10370 10369 10368 10367 10365 10363 10362 10362 10361 10360 10358 10356 10355 10353 10352 10351 10350 10348 10347 10345 10344 10343 10342 10341 10340 10338 10337 10336 10334 10333 10332 10330 10329 10327 10326 10325 10323 10322 10320 10318 10317 10315 10313 10311 10310 10308
10400 10400 10400 10400 10400 10400 10400 10399 10399 10398 10398 10398 10397 10397 10396 10395 10394 10393 10393 10392 10391 10390 10388 10387 10386 10385 10383 10382 10380 10378 10377 10376 10375 10375 10374 10372 10370 10368 10368 10367 10365 10364 10363 10363 10362 10360 10358 10357 10356 10355 10353 10352 10350 10349 10348 10347 10345 10343 10342 10341 10340 10338 10337 10336 10335 10333 10332 10330 10329 10328 10327 10325 10323 10322 10320 10319 10317 10315 10314 10312 10310 10308 10307 10305 10303 10301
10397 10397 10397 10397 10397 10397 10396 10396 10396 10395 10395 10395 10394 10393 10392 10392 10391 10390 10389 10388 10387 10386 10385 10383 10382 10380 10379 10378 10376 10375 10373 10372 10371 10370 10369 10367 10365 10364 10363 10362 10361 10360 10358 10358 10357 10356 10355 10353 10352 10350 10349 10348 10346 10345 10343 10342 10340 10339 10338 10336 10335 10333 10332 10331 10330 10328 10327 10325 10324 10322 10321 10320 10318 10317 10315 10313 10312 10310 10308 10306 10304 10302 10300 10298 10296 10294
10393 10393 10393 10393 10393 10393 10393 10393 10392 10392 10392 10391 10390 10390 10389 10388 10387 10386 10385 10385 10383 10383 10382 10380 10378 10377 10375 10373 10372 10370 10368 10368 10367 10366 10365 10363 10361 10360 10358 10357 10356 10355 10354 10353 10352 10351 10350 10349 10348 10347 10345 10343 10342 10340 10339 10337 10336 10335 10333 10332 10330 10328 10327 10326 10324 10323 10322 10320 10318 10317 10315 10314 10313 10311 10309 10308 10306 10304 10302 10300 10298 10296 10294 10292 10290 10288
10390 10390 10390 10390 10390 10390 10389 10389 10388 10388 10388 10387 10387 10386 10385 10384 10383 10382 10382 10380 10380 10379 10378 10377 10375 10373 10371 10369 10367 10365 10364 10363 10362 10362 10360 10359 10357 10355 10354 10353 10352 10350 10349 10348 10347 10346 10345 10344 10343 10342 10341 10339 10337 10336 10335 10333 10332 10330 10328 10327 10325 10324 10322 10321 10319 10317 10316 10314 10313 10311 10310 10308 10307 10305 10303 10302 10300 10298 10296 10294 10292 10290 10288 10286 10283 10282
10387 10387 10387 10387 10387 10387 10386 10385 10385 10385 10384 10383 10383 10382 10382 10380 10380 10378 10378 10377 10376 10375 10373 10372 10371 10369 10368 10366 10363 10362 10360 10358 10358 10357 10356 10355 10353 10351 10350 10348 10347 10346 10345 10343 10342 10341 10340 10339 10338 10337 10337 10335 10333 10331 10330 10328 10327 10325 10323 10322 10320 10319 10317 10316 10314 10312 10310 10308 10307 10305 10304 10302 10301 10299 10297 10296 10294 10292 10290 10288 10286 10283 10282 10280 10277 10275
10384 10384 10384 10383 10383 10383 10383 10382 10382 10382 10381 10380 10379 10378 10378 10377 10376 10375 10374 10373 10372 10371 10370 10368 10367 10365 10363 10362 10360 10358 10356 10355 10353 10352 10351 10350 10348 10347 10345 10343 10342 10342 10340 10338 10337 10336 10335 10334 10333 10332 10332 10330 10328 10327 10325 10323 10322 10320 10318 10317 10315 10314 10312 10310 10309 10307 10305 10303 10302 10300 10298 10297 10295 10293 10292 10290 10288 10286 10283 10282 10280 10278 10275 10273 10272 10270
10381 10381 10381 10380 10380 10380 10380 10379 10378 10378 10377 10377 10375 10375 10374 10373 10372 10371 10370 10369 10368 10367 10365 10363 10362 10360 10359 10357 10356 10354 10352 10350 10349 10348 10347 10345 10344 10343 10341 10339 10338 10337 10336 10334 10333 10331 10330 10329 10328 10327 10326 10325 10324 10323 10321 10319 10317 10315 10313 10312 10311 10309 10307 10305 10303 10302 10300 10298 10296 10294 10293 10291 10289 10287 10285 10283 10282 10280 10278 10276 10273 10272 10270 10267 10265 10263
10378 10378 10378 10377 10377 10377 10377 10376 10375 10375 10373 10373 10372 10371 10370 10369 10368 10367 10367 10365 10364 10363 10361 10360 10358 10357 10355 10353 10352 10350 10348 10347 10345 10343 10342 10340 10340 10338 10337 10335 10333 10332 10331 10330 10328 10327 10325 10324 10323 10322 10321 10320 10318 10318 10316 10315 10312 10310 10308 10307 10305 10303 10302 10300 10298 10296 10294 10292 10290 10288 10287 10285 10283 10282 10280 10278 10276 10274 10272 10270 10268 10266 10263 10262 10259 10257
10375 10375 10375 10375 10374 10374 10373 10373 10372 10371 10370 10370 10369 10368 10367 10366 10365 10363 10362 10362 10360 10358 10357 10355 10354 10352 10351 10349 10347 10346 10344 10342 10340 10339 10337 10336 10335 10333 10332 10330 10329 10327 10326 10325 10323 10322 10321 10319 10318 10317 10316 10315 10313 10312 10311 10309 10307 10306 10304 10302 10300 10298 10297 10295 10293 10290 10288 10287 10285 10283 10281 10279 10278 10276 10274 10272 10270 10268 10266 10263 10262 10260 10258 10255 10253 10250
10372 10372 10372 10372 10371 10371 10370 10369 10368 10368 10367 10367 10365 10365 10363 10363 10362 10360 10358 10357 10356 10355 10353 10352 10350 10348 10347 10345 10343 10342 10340 10338 10336 10335 10333 10331 10330 10328 10327 10326 10324 10323 10322 10320 10318 10317 10316 10315 10313 10312 10310 10310 10308 10307 10305 10304 10302 10300 10299 10297 10295 10293 10291 10289 10287 10285 10283 10280 10279 10277 10275 10273 10272 10270 10268 10266 10264 10262 10260 10258 10255 10253 10251 10249 10247 10245
10370 10369 10368 10368 10368 10367 10367 10366 10365 10365 10363 10363 10362 10361 10360 10359 10358 10356 10355 10353 10352 10350 10348 10347 10345 10343 10342 10340 10339 10338 10336 10334 10332 10330 10328 10327 10325 10323 10322 10321 10320 10318 10317 10315 10313 10312 10311 10310 10308 10307 10305 10304 10303 10302 10300 10298 10297 10295 10293 10292 10290 10288 10286 10283 10282 10280 10277 10275 10273 10271 10269 10267 10265 10263 10262 10260 10258 10256 10254 10252 10250 10247 10245 10243 10241 10239
10366 10366 10365 10365 10364 10363 10363 10362 10362 10361 10360 10359 10358 10357 10356 10355 10354 10352 10350 10349 10347 10345 10344 10342 10341 10339 10337 10335 10334 10333 10332 10330 10328 10326 10324 10322 10321 10319 10318 10316 10315 10313 10312 10310 10308 10307 10306 10305 10303 10302 10300 10299 10298 10296 10294 10293 10291 10289 10288 10287 10285 10283 10280 10278 10276 10274 10272 10269 10267 10265 10263 10262 10260 10258 10256 10254 10252 10250 10248 10246 10244 10242 10240 10237 10235 10233
10363 10362 10362 10361 10360 10360 10359 10358 10357 10357 10356 10355 10354 10353 10352 10351 10350 10348 10347 10345 10343 10341 10340 10338 10337 10335 10333 10332 10330 10328 10326 10325 10323 10322 10320 10318 10317 10315 10313 10312 10310 10308 10307 10306 10304 10302 10300 10299 10298 10297 10295 10294 10292 10290 10289 10287 10285 10283 10282 10280 10279 10277 10275 10273 10270 10268 10265 10263 10262 10260 10257 10255 10253 10252 10250 10248 10246 10244 10242 10240 10238 10236 10233 10232 10229 10227
10359 10358 10358 10357 10357 10356 10355 10354 10353 10353 10352 10351 10350 10349 10348 10347 10345 10344 10342 10340 10338 10337 10335 10333 10332 10330 10328 10327 10325 10323 10322 10320 10318 10317 10315 10314 10312 10311 10309 10307 10305 10304 10302 10301 10299 10298 10296 10294 10292 10291 10290 10289 10287 10285 10283 10282 10280 10278 10276 10275 10273 10272 10269 10267 10265 10263 10260 10258 10255 10253 10252 10250 10247 10245 10243 10242 10240 10238 10236 10234 10232 10230 10228 10226 10223 10221
10355 10354 10353 10353 10352 10352 10351 10350 10350 10349 10348 10347 10346 10345 10343 10342 10341 10339 10338 10336 10334 10332 10330 10329 10328 10326 10324 10322 10321 10319 10317 10315 10313 10312 10311 10310 10308 10306 10305 10303 10301 10299 10298 10296 10294 10293 10291 10289 10288 10286 10285 10283 10282 10280 10278 10277 10274 10272 10270 10268 10267 10265 10263 10261 10259 10257 10255 10252 10250 10247 10245 10243 10242 10239 10237 10235 10233 10232 10230 10228 10227 10224 10222 10220 10218 10215
10351 10350 10350 10349 10348 10348 10347 10347 10346 10345 10344 10343 10342 10340 10339 10338 10336 10335 10333 10332 10330 10328 10326 10324 10323 10322 10320 10318 10317 10315 10313 10310 10308 10307 10306 10305 10303 10302 10300 10298 10297 10295 10293 10291 10289 10287 10286 10284 10283 10282 10280 10278 10276 10274 10272 10271 10269 10267 10265 10263 10261 10259 10257 10255 10253 10251 10249 10247 10244 10242 10240 10238 10235 10233 10231 10229 10227 10225 10223 10222 10221 10219 10217 10215 10212 10210
10347 10347 10346 10346 10345 10344 10343 10343 10342 10341 10340 10338 10337 10336 10334 10333 10332 10330 10328 10327 10325 10323 10321 10319 10318 10317 10315 10313 10312 10311 10309 10307 10305 10303 10302 10300 10298 10297 10295 10293 10292 10290 10288 10287 10284 10282 10280 10279 10278 10277 10275 10273 10271 10268 10267 10265 10263 10262 10259 10257 10255 10253 10251 10249 10247 10245 10243 10240 10238 10236 10234 10232 10230 10227 10225 10222 10220 10218 10217 10216 10214 10213 10212 10210 10207 10205
10343 10343 10343 10342 10342 10340 10340 10338 10338 10337 10335 10334 10332 10331 10330 10328 10327 10325 10323 10322 10320 10318 10317 10315 10313 10311 10310 10308 10307 10306 10304 10302 10300 10299 10297 10295 10294 10292 10290 10289 10287 10285 10283 10281 10279 10277 10275 10273 10272 10272 10270 10269 10267 10263 10261 10259 10258 10256 10254 10252 10250 10248 10245 10243 10241 10239 10237 10235 10232 10230 10228 10226 10224 10222 10219 10217 10214 10212 10210 10209 10208 10207 10206 10204 10202 10200
10340 10340 10339 10338 10338 10337 10335 10335 10333 10332 10331 10330 10328 10327 10325 10324 10323 10321 10319 10317 10315 10313 10312 10310 10308 10306 10305 10303 10302 10301 10299 10298 10296 10294 10293 10292 10290 10288 10286 10284 10282 10280 10278 10276 10273 10272 10269 10267 10265 10265 10265 10265 10263 10260 10256 10253 10252 10250 10248 10247 10245 10243 10240 10238 10235 10233 10232 10229 10227 10225 10223 10220 10218 10217 10214 10211 10208 10206 10204 10202 10201 10200 10200 10198 10197 10195
10337 10337 10336 10335 10334 10333 10332 10330 10329 10328 10327 10325 10324 10322 10321 10319 10318 10316 10315 10313 10311 10308 10307 10305 10303 10302 10300 10298 10297 10295 10294 10293 10291 10290 10288 10287 10285 10283 10282 10280 10278 10276 10273 10271 10268 10266 10264 10262 10259 10258 10257 10258 10258 10256 10252 10248 10246 10244 10242 10241 10239 10237 10235 10232 10230 10228 10226 10224 10222 10219 10217 10215 10213 10210 10208 10206 10203 10200 10198 10196 10195 10194 10193 10192 10190 10188